Location: Apeadero de Los Molinos-Guadarrama
(40.7091°N, 4.0689°W)
Time: 13:33:21
(UTC+00:00)

Cosmos 1125 Rocket - Pass Details

Date: 14 May 2021
Orbit: 758 x 779 km, 74.0° (Epoch: 18 June)

Event Time Altitude Azimuth Distance (km) Brightness Sun altitude
Exits shadow 23:17:33 38° 57° (ENE) 1,163 4.5 -29.1°
Drops below altitude 10° 23:21:02 10° 30° (NNE) 2,300 6.5 -29.2°
Sets 23:23:28 0° 25° (NNE) 3,227 7.4 -29.3°
